Tracking 20724 objects as of 2-Jun-2020
HD Live streaming from Space Station
objects crossing your sky now

ONEWEB-0095

Track ONEWEB-0095 now!
10-day predictions
ONEWEB-0095 is classified as:


NORAD ID: 45436
Int'l Code: 2020-020N
Perigee: 586.8 km
Apogee: 621.5 km
Inclination: 87.6 °
Period: 96.6 minutes
Semi major axis: 6975 km
RCS: Unknown
Launch date: March 21, 2020
Source: United Kingdom (UK)
Launch site: TYURATAM MISSILE AND SPACE COMPLEX (TTMTR)
aabbcc
Your satellite tracking list
Your tracking list is empty




NASA's NSSDC Master Catalog

Two Line Element Set (TLE):
1 45436U 20020N   20154.25001157  .00054319  00000-0  55236-2 0  9994
2 45436  87.5693 114.5784 0024814  38.6827 350.2497 14.90295771 10999
Source of the keplerian elements: AFSPC